When you browse on this site, cookies collect data to enhance your experience and personalize the content and advertising you see.
Visit our Privacy Policy to learn more. By continuing to use the site, you agree to this use of cookies and data.

Hourly Weather Skorodumovo

Today, 5 July, Sunday

Time Temperature Precipitation Wind Pressure Humidity
00:00 +21°C° 0 mm 2 mps 743 mmHg 90%
01:00 +22°C° 0 mm 1 mps 743 mmHg 90%
02:00 +22°C° 0 mm 1 mps 743 mmHg 90%
03:00 +19°C° 0 mm 0 mps 743 mmHg 91%
04:00 +22°C° 0 mm 1 mps 743 mmHg 91%
05:00 +22°C° 0 mm 1 mps 743 mmHg 91%
06:00 +22°C° 0 mm 1 mps 743 mmHg 91%
07:00 +21°C° 0 mm 0 mps 742 mmHg 87%
08:00 +22°C° 0 mm 0 mps 742 mmHg 83%
09:00 +23°C° 0 mm 0 mps 743 mmHg 78%
10:00 +24°C° 0 mm 0 mps 743 mmHg 74%
11:00 +27°C° 0 mm 1 mps 743 mmHg 71%
12:00 +28°C° 0 mm 1 mps 743 mmHg 67%
13:00 +28°C° 0 mm 1 mps 742 mmHg 67%
14:00 +28°C° 0 mm 1 mps 742 mmHg 67%
15:00 +28°C° 0 mm 2 mps 742 mmHg 68%
16:00 +26°C° 3.5 mm 2 mps 742 mmHg 75%
17:00 +24°C° 3.5 mm 1 mps 742 mmHg 83%
18:00 +22°C° 3.5 mm 1 mps 741 mmHg 91%
19:00 +22°C° 0.1 mm 1 mps 742 mmHg 91%
20:00 +21°C° 0.1 mm 1 mps 742 mmHg 91%
21:00 +21°C° 0.1 mm 1 mps 742 mmHg 91%
22:00 +21°C° 0 mm 1 mps 742 mmHg 92%
23:00 +20°C° 0 mm 1 mps 742 mmHg 93%

Tomorrow, 6 July, Monday

Time Temperature Precipitation Wind Pressure Humidity
00:00 +20°C° 0 mm 1 mps 742 mmHg 93%
01:00 +20°C° 0 mm 1 mps 742 mmHg 94%
02:00 +19°C° 0 mm 1 mps 742 mmHg 94%
03:00 +18°C° 0 mm 2 mps 742 mmHg 94%
04:00 +18°C° 0 mm 2 mps 742 mmHg 94%
05:00 +19°C° 0 mm 1 mps 742 mmHg 93%
06:00 +20°C° 0 mm 1 mps 742 mmHg 93%
07:00 +21°C° 0 mm 1 mps 742 mmHg 89%
08:00 +22°C° 0 mm 1 mps 742 mmHg 84%
09:00 +24°C° 0 mm 1 mps 742 mmHg 80%
10:00 +25°C° 0 mm 1 mps 742 mmHg 75%
11:00 +26°C° 0 mm 1 mps 742 mmHg 70%
12:00 +27°C° 0 mm 1 mps 742 mmHg 65%
13:00 +27°C° 0 mm 1 mps 742 mmHg 64%
14:00 +27°C° 0 mm 1 mps 742 mmHg 62%
15:00 +28°C° 0 mm 1 mps 742 mmHg 61%
16:00 +28°C° 0 mm 1 mps 742 mmHg 63%
17:00 +28°C° 0 mm 1 mps 741 mmHg 65%
18:00 +27°C° 0 mm 1 mps 741 mmHg 67%
19:00 +26°C° 0 mm 1 mps 741 mmHg 71%
20:00 +24°C° 0 mm 1 mps 741 mmHg 75%
21:00 +23°C° 0 mm 1 mps 741 mmHg 79%
22:00 +22°C° 0 mm 1 mps 741 mmHg 81%
23:00 +22°C° 0 mm 1 mps 741 mmHg 82%

Day after tomorrow, 7 July, Tuesday

Time Temperature Precipitation Wind Pressure Humidity
00:00 +21°C° 0 mm 1 mps 741 mmHg 84%
01:00 +21°C° 0 mm 1 mps 741 mmHg 85%
02:00 +21°C° 0 mm 1 mps 741 mmHg 87%
03:00 +19°C° 0 mm 2 mps 741 mmHg 88%
04:00 +20°C° 0 mm 2 mps 741 mmHg 89%
05:00 +20°C° 0 mm 2 mps 741 mmHg 89%
06:00 +21°C° 0 mm 2 mps 741 mmHg 90%
07:00 +23°C° 0.1 mm 2 mps 741 mmHg 87%
08:00 +25°C° 0.1 mm 3 mps 741 mmHg 84%
09:00 +26°C° 0.1 mm 3 mps 741 mmHg 81%
10:00 +27°C° 0.2 mm 3 mps 740 mmHg 76%
11:00 +29°C° 0.2 mm 3 mps 740 mmHg 70%
12:00 +30°C° 0.2 mm 3 mps 740 mmHg 65%
13:00 +30°C° 0.4 mm 4 mps 740 mmHg 66%
14:00 +30°C° 0.4 mm 4 mps 739 mmHg 67%
15:00 +30°C° 0.4 mm 4 mps 739 mmHg 69%
16:00 +30°C° 0.3 mm 3 mps 739 mmHg 71%
17:00 +30°C° 0.3 mm 3 mps 739 mmHg 74%
18:00 +29°C° 0.3 mm 2 mps 739 mmHg 77%
19:00 +28°C° 0 mm 2 mps 739 mmHg 79%
20:00 +27°C° 0 mm 2 mps 739 mmHg 81%
21:00 +25°C° 0 mm 2 mps 739 mmHg 83%
22:00 +25°C° 0 mm 2 mps 739 mmHg 83%
23:00 +24°C° 0 mm 3 mps 738 mmHg 83%

8 July, Wednesday

Time Temperature Precipitation Wind Pressure Humidity
00:00 +22°C° 0 mm 3 mps 738 mmHg 83%
01:00 +22°C° 0 mm 3 mps 738 mmHg 82%
02:00 +22°C° 0 mm 3 mps 738 mmHg 81%
03:00 +21°C° 0 mm 3 mps 738 mmHg 80%
04:00 +22°C° 0 mm 3 mps 738 mmHg 80%
05:00 +23°C° 0 mm 2 mps 738 mmHg 81%
06:00 +23°C° 0 mm 2 mps 738 mmHg 82%
07:00 +24°C° 0 mm 3 mps 738 mmHg 78%
08:00 +26°C° 0 mm 3 mps 738 mmHg 73%
09:00 +27°C° 0 mm 4 mps 738 mmHg 69%
10:00 +28°C° 0 mm 4 mps 738 mmHg 68%
11:00 +29°C° 0 mm 4 mps 738 mmHg 67%
12:00 +29°C° 0 mm 4 mps 738 mmHg 67%
13:00 +29°C° 0 mm 4 mps 738 mmHg 69%
14:00 +29°C° 0 mm 3 mps 738 mmHg 70%
15:00 +30°C° 0 mm 3 mps 738 mmHg 72%
16:00 +29°C° 0.5 mm 2 mps 739 mmHg 74%
17:00 +29°C° 0.5 mm 2 mps 739 mmHg 76%
18:00 +29°C° 0.5 mm 2 mps 739 mmHg 78%
19:00 +27°C° 0.5 mm 2 mps 739 mmHg 81%
20:00 +25°C° 0.5 mm 2 mps 739 mmHg 85%
21:00 +23°C° 0.5 mm 2 mps 739 mmHg 88%
22:00 +21°C° 0.4 mm 2 mps 739 mmHg 90%
23:00 +21°C° 0.4 mm 2 mps 739 mmHg 92%

9 July, Thursday

Time Temperature Precipitation Wind Pressure Humidity
00:00 +20°C° 0.4 mm 2 mps 739 mmHg 94%
01:00 +20°C° 0.2 mm 3 mps 739 mmHg 95%
02:00 +20°C° 0.2 mm 3 mps 739 mmHg 96%
03:00 +19°C° 0.2 mm 3 mps 739 mmHg 97%
04:00 +19°C° 0.2 mm 3 mps 739 mmHg 96%
05:00 +19°C° 0.2 mm 3 mps 739 mmHg 96%
06:00 +19°C° 0.2 mm 3 mps 739 mmHg 96%
07:00 +19°C° 0.5 mm 3 mps 739 mmHg 96%
08:00 +19°C° 0.5 mm 4 mps 740 mmHg 95%
09:00 +19°C° 0.5 mm 4 mps 740 mmHg 95%
10:00 +19°C° 0.5 mm 4 mps 740 mmHg 94%
11:00 +19°C° 0.5 mm 4 mps 740 mmHg 93%
12:00 +19°C° 0.5 mm 4 mps 740 mmHg 93%
13:00 +19°C° 0.7 mm 4 mps 740 mmHg 93%
14:00 +19°C° 0.7 mm 4 mps 740 mmHg 94%
15:00 +17°C° 0.7 mm 5 mps 740 mmHg 94%
16:00 +17°C° 1.3 mm 5 mps 740 mmHg 95%
17:00 +16°C° 1.3 mm 6 mps 740 mmHg 95%
18:00 +15°C° 1.3 mm 6 mps 740 mmHg 96%
19:00 +15°C° 0.5 mm 6 mps 740 mmHg 95%
20:00 +15°C° 0.5 mm 6 mps 740 mmHg 94%
21:00 +14°C° 0.5 mm 6 mps 741 mmHg 94%
22:00 +14°C° 0 mm 5 mps 741 mmHg 94%
23:00 +13°C° 0 mm 4 mps 741 mmHg 95%

10 July, Friday

Time Temperature Precipitation Wind Pressure Humidity
00:00 +13°C° 0 mm 4 mps 742 mmHg 95%
01:00 +12°C° 0 mm 4 mps 742 mmHg 95%
02:00 +12°C° 0 mm 4 mps 743 mmHg 95%
03:00 +11°C° 0 mm 4 mps 743 mmHg 95%
04:00 +12°C° 0 mm 3 mps 744 mmHg 94%
05:00 +12°C° 0 mm 3 mps 744 mmHg 93%
06:00 +13°C° 0 mm 3 mps 744 mmHg 93%
07:00 +14°C° 0 mm 3 mps 745 mmHg 88%
08:00 +17°C° 0 mm 3 mps 745 mmHg 83%
09:00 +18°C° 0 mm 3 mps 745 mmHg 79%
10:00 +19°C° 0 mm 3 mps 746 mmHg 75%
11:00 +20°C° 0 mm 3 mps 746 mmHg 71%
12:00 +21°C° 0 mm 3 mps 746 mmHg 67%
13:00 +22°C° 0 mm 3 mps 746 mmHg 66%
14:00 +22°C° 0 mm 3 mps 746 mmHg 65%
15:00 +22°C° 0 mm 3 mps 746 mmHg 64%
16:00 +22°C° 0.1 mm 3 mps 747 mmHg 67%
17:00 +22°C° 0.1 mm 3 mps 747 mmHg 70%
18:00 +22°C° 0.1 mm 3 mps 747 mmHg 72%
19:00 +20°C° 0 mm 2 mps 747 mmHg 76%
20:00 +19°C° 0 mm 2 mps 748 mmHg 80%
21:00 +17°C° 0 mm 2 mps 748 mmHg 84%
22:00 +16°C° 0 mm 2 mps 748 mmHg 86%
23:00 +16°C° 0 mm 2 mps 749 mmHg 88%
Show more